Карточка аэропорта UNWW

Внимание!
Информация на этой странице в стадии наполнения.
Если вы не увидели какой-то информации, или заметили неточность - пожалуйста сообщите нам!
Спасибо!
Команда RU-STAFF
Название аэропортаСпиченково
Название аэропорта (англ.)Spichenkovo
Превышение1023 ft. (311.8 m.)
Координаты53°48.714', 86°52.704'
Высота перехода800m
Эшелон переходаFL050
Коды ответчика5270-5277
Зона ОрВДНовосибирск РПИ (UNNT)
Данные METARUNWW 200000Z 18002MPS CAVOK 19/17 Q1002 R19/210255 NOSIG RMK QFE724
Проноз погоды (TAF)UNWW 192300Z 2000/2024 22003G08MPS 8000 BKN040CB TX27/2010Z TN15/2022Z TEMPO 2001/2024 -TSRA BKN020CB
NOTAMshow/hide NOTAM
AWOS   TABLE

Информация о ВПП

ВПП Длина ВПП (м.) Покрытие Курс ВПП Частота ILS
012679Цементобетон14 
192679Цементобетон194111.1

Диспетчерские позиции

Позывной Наименование органа УВД Частота
UNWW_TWRНовокузнецк-Старт121.2
UNWW_APPНовокузнецк-Подход118.6



Спутниковое изображение